| time (UTC) | temp F | wind direction | speed knots | gust knots | rain 1hr in | rain 24hr in | rain mn in | humidity % | barometer mb |
| 20260510210004 | 54 | 191 | 1.7 | 4.3 | 0.00 | 0.13 | 0.11 | 75 | 1015.8 |
| 20260510204505 | 54 | 217 | 2.6 | 7.8 | 0.00 | 0.21 | 0.11 | 75 | 1015.7 |
| 20260510203004 | 54 | 191 | 3.5 | 7.8 | 0.00 | 0.21 | 0.11 | 75 | 1015.5 |
| 20260510201501 | 54 | 173 | 6.1 | 10.4 | 0.00 | 0.21 | 0.11 | 75 | 1015.3 |
| 20260510200005 | 54 | 202 | 2.6 | 9.6 | 0.00 | 0.21 | 0.11 | 74 | 1015.1 |
| 20260510194502 | 55 | 158 | 5.2 | 9.6 | 0.00 | 0.21 | 0.11 | 73 | 1014.9 |
| 20260510193002 | 55 | 155 | 4.3 | 8.7 | 0.00 | 0.21 | 0.11 | 71 | 1014.9 |
| 20260510191504 | 56 | 253 | 3.5 | 8.7 | 0.00 | 0.21 | 0.11 | 70 | 1014.6 |
| 20260510190009 | 56 | 236 | 3.5 | 12.2 | 0.00 | 0.21 | 0.11 | 69 | 1014.4 |
| 20260510184501 | 57 | 143 | 3.5 | 12.2 | 0.00 | 0.21 | 0.11 | 68 | 1014.2 |
| 20260510183000 | 57 | 179 | 7.0 | 10.4 | 0.00 | 0.21 | 0.11 | 66 | 1014.1 |
| 20260510181501 | 58 | 253 | 5.2 | 12.2 | 0.00 | 0.21 | 0.11 | 61 | 1014.3 |
| 20260510180003 | 57 | 207 | 4.3 | 13.9 | 0.00 | 0.21 | 0.11 | 63 | 1014.1 |
| 20260510174502 | 58 | 200 | 7.0 | 13.9 | 0.00 | 0.21 | 0.11 | 62 | 1014.1 |
| 20260510173004 | 58 | 218 | 7.0 | 13.0 | 0.00 | 0.21 | 0.11 | 59 | 1014.2 |
| 20260510171502 | 59 | 221 | 7.0 | 15.6 | 0.00 | 0.21 | 0.11 | 58 | 1014.1 |
| 20260510170101 | 59 | 225 | 4.3 | 18.2 | 0.00 | 0.21 | 0.11 | 55 | 1013.9 |
| 20260510164602 | 59 | 230 | 10.4 | 14.8 | 0.00 | 0.26 | 0.11 | 57 | 1013.8 |
| 20260510163123 | 59 | 150 | 8.7 | 15.6 | 0.00 | 0.26 | 0.11 | 56 | 1013.9 |
| 20260510163002 | 59 | 251 | 8.7 | 17.4 | 0.00 | 0.26 | 0.11 | 56 | 1013.8 |
| 20260510161606 | 59 | 182 | 8.7 | 16.5 | 0.00 | 0.26 | 0.11 | 56 | 1014.1 |
| 20260510160007 | 58 | 309 | 8.7 | 16.5 | 0.00 | 0.26 | 0.11 | 58 | 1014.1 |
| 20260510154502 | 59 | 242 | 6.1 | 13.9 | 0.00 | 0.26 | 0.11 | 56 | 1014.0 |
| 20260510153001 | 58 | 124 | 8.7 | 14.8 | 0.00 | 0.26 | 0.11 | 60 | 1013.9 |
| 20260510151502 | 57 | 204 | 4.3 | 14.8 | 0.00 | 0.26 | 0.11 | 62 | 1014.2 |
| 20260510150002 | 57 | 231 | 8.7 | 16.5 | 0.00 | 0.26 | 0.11 | 61 | 1014.5 |
| 20260510144502 | 56 | 239 | 4.3 | 14.8 | 0.00 | 0.27 | 0.11 | 72 | 1014.6 |
| 20260510143002 | 55 | 124 | 6.1 | 13.0 | 0.00 | 0.27 | 0.11 | 72 | 1014.7 |
| 20260510141502 | 55 | 245 | 5.2 | 11.3 | 0.00 | 0.27 | 0.11 | 73 | 1014.7 |
| 20260510140002 | 55 | 230 | 4.3 | 11.3 | 0.00 | 0.27 | 0.11 | 73 | 1014.7 |
| 20260510134613 | 54 | 49 | 5.2 | 10.4 | 0.00 | 0.27 | 0.11 | 76 | 1014.7 |
| 20260510133059 | 54 | 178 | 3.5 | 9.6 | 0.00 | 0.27 | 0.11 | 76 | 1014.6 |
| 20260510131601 | 54 | 244 | 3.5 | 10.4 | 0.00 | 0.27 | 0.11 | 75 | 1014.4 |
| 20260510124601 | 54 | 262 | 6.1 | 11.3 | 0.01 | 0.35 | 0.11 | 77 | 1014.3 |
| 20260510123101 | 54 | 228 | 2.6 | 12.2 | 0.02 | 0.35 | 0.11 | 81 | 1014.7 |
| 20260510121600 | 53 | 155 | 7.0 | 12.2 | 0.02 | 0.35 | 0.11 | 81 | 1014.7 |
| 20260510120100 | 52 | 151 | 4.3 | 8.7 | 0.02 | 0.35 | 0.10 | 84 | 1014.6 |
| 20260510114600 | 51 | 214 | 4.3 | 10.4 | 0.02 | 0.38 | 0.10 | 86 | 1014.9 |
| 20260510113123 | 51 | 224 | 3.5 | 12.2 | 0.02 | 0.37 | 0.09 | 87 | 1015.0 |
| 20260510111601 | 52 | 193 | 4.3 | 13.9 | 0.06 | 0.36 | 0.09 | 85 | 1015.1 |
| 20260510110003 | 52 | 227 | 1.7 | 7.8 | 0.06 | 0.35 | 0.08 | 86 | 1014.7 |
| 20260510104603 | 51 | 183 | 2.6 | 9.6 | 0.06 | 0.42 | 0.08 | 86 | 1014.7 |
| 20260510103104 | 53 | 207 | 1.7 | 14.8 | 0.05 | 0.41 | 0.07 | 84 | 1014.7 |
| 20260510103001 | 53 | 216 | 3.5 | 14.8 | 0.05 | 0.41 | 0.07 | 83 | 1014.6 |
| 20260510101601 | 56 | 208 | 6.1 | 12.2 | 0.00 | 0.36 | 0.02 | 77 | 1013.9 |
| 20260510100100 | 56 | 288 | 6.1 | 17.4 | 0.00 | 0.36 | 0.02 | 76 | 1013.7 |
| 20260510100002 | 56 | 152 | 7.8 | 17.4 | 0.00 | 0.36 | 0.02 | 75 | 1013.6 |
| 20260510094502 | 56 | 172 | 8.7 | 19.1 | 0.00 | 0.36 | 0.02 | 76 | 1013.8 |
| 20260510093109 | 56 | 140 | 7.0 | 16.5 | 0.00 | 0.36 | 0.02 | 78 | 1013.9 |
| 20260510091502 | 56 | 195 | 5.2 | 13.9 | 0.00 | 0.36 | 0.02 | 80 | 1014.1 |
| 20260510090100 | 55 | 342 | 6.1 | 13.0 | 0.00 | 0.36 | 0.02 | 82 | 1014.2 |
| 20260510090005 | 55 | 200 | 6.1 | 13.0 | 0.00 | 0.36 | 0.02 | 82 | 1014.2 |
| 20260510084603 | 54 | 264 | 6.1 | 12.2 | 0.00 | 0.36 | 0.02 | 84 | 1014.4 |
| 20260510084501 | 54 | 146 | 7.0 | 12.2 | 0.00 | 0.36 | 0.02 | 84 | 1014.5 |
| 20260510083001 | 53 | 194 | 4.3 | 12.2 | 0.00 | 0.36 | 0.02 | 86 | 1014.5 |
| 20260510081625 | 53 | 135 | 5.2 | 9.6 | 0.00 | 0.36 | 0.02 | 86 | 1014.7 |
| 20260510081505 | 53 | 148 | 4.3 | 9.6 | 0.00 | 0.36 | 0.02 | 85 | 1014.6 |
| 20260510080001 | 53 | 136 | 5.2 | 8.7 | 0.00 | 0.36 | 0.02 | 86 | 1014.4 |
| 20260510074501 | 52 | 194 | 5.2 | 9.6 | 0.01 | 0.36 | 0.02 | 86 | 1014.8 |
| 20260510073106 | 52 | 139 | 2.6 | 7.0 | 0.01 | 0.36 | 0.02 | 87 | 1014.7 |
| 20260510071501 | 52 | 215 | 1.7 | 6.1 | 0.01 | 0.36 | 0.02 | 87 | 1014.7 |
| 20260510070100 | 52 | 160 | 3.5 | 10.4 | 0.01 | 0.36 | 0.02 | 86 | 1014.6 |
| 20260510070002 | 52 | 141 | 4.3 | 10.4 | 0.01 | 0.36 | 0.02 | 86 | 1014.6 |
| 20260510064603 | 52 | 166 | 4.3 | 9.6 | 0.00 | 0.35 | 0.02 | 85 | 1014.5 |
| 20260510063101 | 52 | 134 | 2.6 | 6.1 | 0.00 | 0.35 | 0.02 | 86 | 1014.4 |
| 20260510061600 | 51 | 143 | 2.6 | 9.6 | 0.00 | 0.35 | 0.02 | 87 | 1014.3 |
| 20260510061503 | 51 | 181 | 3.5 | 9.6 | 0.00 | 0.35 | 0.02 | 87 | 1014.3 |
| 20260510060001 | 51 | 170 | 3.5 | 7.0 | 0.00 | 0.35 | 0.02 | 89 | 1014.3 |
| 20260510054601 | 51 | 205 | 3.5 | 7.0 | 0.00 | 0.35 | 0.02 | 88 | 1014.3 |
| 20260510053124 | 50 | 150 | 3.5 | 7.8 | 0.00 | 0.35 | 0.02 | 89 | 1014.3 |
| 20260510051503 | 50 | 147 | 5.2 | 8.7 | 0.00 | 0.35 | 0.02 | 89 | 1014.3 |
| 20260510050112 | 50 | 124 | 1.7 | 5.2 | 0.00 | 0.35 | 0.02 | 90 | 1014.2 |
| 20260510044607 | 50 | 177 | 1.7 | 5.2 | 0.00 | 0.35 | 0.02 | 90 | 1014.2 |
| 20260510043101 | 50 | 129 | 1.7 | 3.5 | 0.00 | 0.35 | 0.02 | 90 | 1014.2 |
| 20260510041604 | 50 | 184 | 0.0 | 5.2 | 0.00 | 0.35 | 0.02 | 90 | 1014.3 |
| 20260510040058 | 50 | 227 | 1.7 | 4.3 | 0.00 | 0.35 | 0.02 | 89 | 1014.1 |
| 20260510040002 | 50 | 201 | 1.7 | 5.2 | 0.00 | 0.35 | 0.02 | 89 | 1014.2 |
| 20260510034601 | 50 | 238 | 2.6 | 5.2 | 0.00 | 0.35 | 0.02 | 90 | 1014.3 |
| 20260510033113 | 50 | 203 | 1.7 | 4.3 | 0.00 | 0.35 | 0.02 | 90 | 1014.3 |
| 20260510031559 | 50 | 196 | 1.7 | 5.2 | 0.00 | 0.35 | 0.02 | 90 | 1014.4 |
| 20260510030112 | 50 | 181 | 1.7 | 5.2 | 0.00 | 0.35 | 0.02 | 90 | 1014.7 |
| 20260510030002 | 50 | 178 | 1.7 | 5.2 | 0.00 | 0.35 | 0.02 | 90 | 1014.6 |
| 20260510024559 | 50 | 120 | 0.9 | 2.6 | 0.00 | 0.35 | 0.02 | 90 | 1014.7 |
| 20260510023100 | 50 | 226 | 0.9 | 2.6 | 0.00 | 0.35 | 0.02 | 91 | 1014.9 |
| 20260510021600 | 50 | 239 | 2.6 | 4.3 | 0.00 | 0.35 | 0.02 | 90 | 1014.8 |
| 20260510020001 | 50 | 195 | 1.7 | 4.3 | 0.00 | 0.35 | 0.02 | 91 | 1014.8 |
| 20260510014603 | 50 | 236 | 0.9 | 4.3 | 0.00 | 0.35 | 0.02 | 91 | 1014.8 |
| 20260510013059 | 50 | 207 | 0.9 | 3.5 | 0.00 | 0.35 | 0.02 | 91 | 1014.8 |
| 20260510011600 | 50 | 116 | 1.7 | 6.1 | 0.00 | 0.35 | 0.02 | 90 | 1014.8 |
| 20260510010100 | 50 | 236 | 1.7 | 5.2 | 0.00 | 0.35 | 0.02 | 90 | 1014.8 |
| 20260510010001 | 50 | 153 | 1.7 | 5.2 | 0.00 | 0.35 | 0.02 | 90 | 1015.0 |
| 20260510004600 | 50 | 207 | 3.5 | 7.0 | 0.00 | 0.35 | 0.02 | 91 | 1014.8 |
| 20260510003105 | 50 | 227 | 4.3 | 7.0 | 0.00 | 0.35 | 0.02 | 90 | 1014.8 |
| 20260510001600 | 50 | 200 | 2.6 | 7.0 | 0.00 | 0.35 | 0.02 | 90 | 1014.9 |
| 20260510000103 | 50 | 260 | 3.5 | 7.0 | 0.00 | 0.35 | 0.02 | 91 | 1014.9 |
| 20260510000002 | 50 | 192 | 4.3 | 7.0 | 0.00 | 0.35 | 0.02 | 90 | 1014.9 |
| 20260509234601 | 50 | 224 | 2.6 | 7.8 | 0.02 | 0.35 | 0.02 | 91 | 1015.0 |
| 20260509233105 | 50 | 197 | 1.7 | 6.1 | 0.02 | 0.35 | 0.02 | 90 | 1015.2 |
| 20260509231600 | 50 | 155 | 0.0 | 7.0 | 0.02 | 0.35 | 0.02 | 90 | 1015.1 |
| 20260509230100 | 50 | 144 | 3.5 | 9.6 | 0.02 | 0.35 | 0.02 | 90 | 1015.0 |
| 20260509230002 | 50 | 230 | 2.6 | 9.6 | 0.02 | 0.35 | 0.02 | 90 | 1015.0 |
| 20260509224501 | 51 | 228 | 4.3 | 7.8 | 0.00 | 0.34 | 0.00 | 89 | 1014.9 |
| 20260509223002 | 51 | 219 | 0.9 | 4.3 | 0.00 | 0.34 | 0.00 | 89 | 1014.7 |
| 20260509221501 | 51 | 246 | 2.6 | 6.1 | 0.00 | 0.34 | 0.00 | 88 | 1014.8 |
| 20260509220001 | 51 | 170 | 2.6 | 6.1 | 0.02 | 0.34 | 0.34 | 89 | 1014.2 |
| 20260509214501 | 50 | 198 | 0.9 | 3.5 | 0.05 | 0.34 | 0.34 | 89 | 1014.2 |
| 20260509213002 | 50 | 228 | 0.0 | 1.7 | 0.08 | 0.34 | 0.34 | 90 | 1014.1 |
| 20260509211501 | 51 | 255 | 0.0 | 2.6 | 0.10 | 0.34 | 0.34 | 89 | 1014.2 |